Starlink 3542

operational
NORAD ID: 51852 Int'l Des: 2022-022 Owner: SPXS Country: US Constellation: starlink
LEOCIRCULAR

Starlink 3542について

説明を読み込み中...

リアルタイム位置

3D地球を読み込み中...

次回通過

高度履歴

Altitude vs Time

uPlot chart will show altitude changes over time

軌道要素

1 51852U 22022A 26037.32241690 -.00000605 00000-0 -19928-4 0 9990
2 51852 53.2170 159.9331 0001599 134.8872 225.2250 15.08832650217027
Epoch: Feb 6, 2026 • Age: 6 hours

現在のステータス

高度 542.7 km
速度 7.59 km/s
衛星直下点 -6.92°S, 165.96°E
打ち上げ日 Mar 3, 2022
運用期間 3.9 years
タイプ internet

技術仕様

分類 Payload
質量 297.00 kg
乾燥質量 275.00 kg
総質量 297.00 kg
長さ 0.20 m
直径 2.80 m
スパン 9.00 m
形状 Box + pan
製造者 SPXS
バスタイプ Starlink
フェーズステータス In Orbit
所有者/国 SPXS/US

大規模コンステレーション

Loading constellations...